Location: Newark
(53.9000°S, 71.3000°W)
Time: 16:13:52
(UTC+00:00)

N. Korean satellite - Visible Passes

Search period start: 19 July 2019 00:00
Search period end: 29 July 2019 00:00
Orbit: 456 x 508 km, 97.2° (Epoch: 18 July)

Date Brightness Start Highest point End Pass type
(mag) Time Alt. Az. Time Alt. Az. Time Alt. Az.
19 Jul 9.3 10:05:41 10° N 10:05:47 11° N 10:05:47 11° N visible
19 Jul 6.4 23:00:50 26° SSE 23:02:45 80° ENE 23:06:16 10° NNW visible
20 Jul 9.6 00:35:08 13° SW 00:35:38 13° WSW 00:37:22 10° W visible
20 Jul 6.9 22:35:21 19° SE 22:37:34 42° E 22:40:55 10° N visible
21 Jul 9.0 00:09:39 18° SW 00:10:46 21° WSW 00:13:28 10° WNW visible
21 Jul 7.7 22:09:52 13° SE 22:12:18 23° E 22:15:10 10° NNE visible
21 Jul 8.1 23:44:10 22° SSW 23:45:49 35° WSW 23:49:02 10° NW visible
22 Jul 9.2 10:24:04 10° NNW 10:24:11 11° NNW 10:24:11 11° NNW visible
22 Jul 8.4 21:45:04 10° SE 21:46:55 14° E 21:48:46 10° ENE visible
22 Jul 6.9 23:18:40 23° S 23:20:46 64° WSW 23:24:15 10° NNW visible
23 Jul 9.2 09:58:36 10° N 09:58:52 12° N 09:58:52 12° N visible
23 Jul 6.4 22:53:10 18° SSE 22:55:40 67° ENE 22:59:08 10° N visible
24 Jul 9.5 00:27:28 13° SW 00:28:37 15° WSW 00:30:40 10° W visible
24 Jul 9.5 09:33:29 10° NNE 09:33:35 11° NNE 09:33:35 11° NNE visible
24 Jul 7.1 22:27:39 13° SSE 22:30:27 35° E 22:33:41 10° NNE visible
25 Jul 8.8 00:01:57 16° SSW 00:03:44 24° WSW 00:06:36 10° WNW visible
25 Jul 7.9 22:02:27 10° SE 22:05:08 20° E 22:07:48 10° NE visible
25 Jul 7.8 23:36:26 18° S 23:38:45 40° WSW 23:42:03 10° NW visible
26 Jul 9.0 10:16:54 10° N 10:17:19 13° NNW 10:17:19 13° NNW visible
26 Jul 6.6 23:10:54 16° S 23:13:42 76° WSW 23:17:10 10° NNW visible
27 Jul 9.8 00:45:47 10° SW 00:46:26 10° SW 00:47:05 10° WSW visible
27 Jul 9.1 09:51:31 10° N 09:52:02 14° N 09:52:02 14° N visible
27 Jul 6.5 22:45:22 12° SSE 22:48:32 56° E 22:51:58 10° N visible
28 Jul 9.4 00:19:39 12° SSW 00:21:35 17° WSW 00:23:53 10° W visible
28 Jul 9.4 09:26:29 10° NNE 09:26:45 12° NNE 09:26:45 12° NNE visible
28 Jul 7.3 22:20:07 10° SSE 22:23:18 30° E 22:26:25 10° NNE visible
28 Jul 8.6 23:54:06 13° S 23:56:40 27° WSW 23:59:40 10° NW visible
